Location: Clinton NY
(43.0598°N, 75.3602°W)
Time: 04:52:43
(UTC-04:00)

ISS - All Passes

Search period start: 24 June 2017 00:00
Search period end: 04 July 2017 00:00
Orbit: 401 x 408 km, 51.6° (Epoch: 24 June)

Date Brightness Start Highest point End Pass type
(mag) Time Alt. Az. Time Alt. Az. Time Alt. Az.
24 Jun - 09:36:59 10° SW 09:40:10 53° SE 09:43:24 10° ENE daylight
24 Jun - 11:13:52 10° W 11:16:48 29° NNW 11:19:45 10° NE daylight
24 Jun - 12:51:40 10° NW 12:54:02 18° N 12:56:24 10° NE daylight
24 Jun - 14:28:17 10° NW 14:31:15 30° NNE 14:34:13 10° E daylight
24 Jun - 16:04:39 10° WNW 16:07:52 50° SW 16:11:05 10° SE daylight
25 Jun - 08:45:14 10° SSW 08:48:05 28° SE 08:50:57 10° ENE daylight
25 Jun - 10:21:20 10° W 10:24:29 41° NNW 10:27:38 10° NE daylight
25 Jun - 11:59:08 10° NW 12:01:34 19° N 12:04:01 10° NE daylight
25 Jun - 13:36:09 10° NW 13:38:53 23° NNE 13:41:36 10° ENE daylight
25 Jun - 15:12:24 10° WNW 15:15:42 88° NNE 15:19:00 10° ESE daylight
25 Jun - 16:50:24 10° WSW 16:51:44 12° SW 16:53:03 10° SSW daylight
26 Jun - 07:54:01 10° S 07:56:04 16° SE 07:58:06 10° E daylight
26 Jun - 09:28:56 10° WSW 09:32:11 68° NNW 09:35:29 10° NE daylight
26 Jun - 11:06:31 10° WNW 11:09:07 21° NNW 11:11:44 10° NE daylight
26 Jun - 12:43:55 10° NW 12:46:26 20° N 12:48:56 10° ENE daylight
26 Jun - 14:20:13 10° NW 14:23:28 51° NNE 14:26:41 10° ESE daylight
26 Jun - 15:57:07 10° W 15:59:44 22° SW 16:02:21 10° S daylight
27 Jun - 08:36:44 10° SW 08:39:58 67° SE 08:43:15 10° ENE daylight
27 Jun - 10:13:51 10° WNW 10:16:41 26° NNW 10:19:32 10° NE daylight
27 Jun - 11:51:34 10° NW 11:53:57 18° N 11:56:20 10° NE daylight
27 Jun - 13:28:04 10° NW 13:31:08 34° NNE 13:34:10 10° E daylight
27 Jun - 15:04:32 10° WNW 15:07:39 40° SW 15:10:46 10° SSE daylight
28 Jun - 07:44:49 10° SSW 07:47:49 35° SE 07:50:51 10° ENE daylight
28 Jun - 09:21:14 10° W 09:24:18 36° NNW 09:27:23 10° NE daylight
28 Jun - 10:59:04 10° NW 11:01:27 18° N 11:03:50 10° NE daylight
28 Jun - 12:35:55 10° NW 12:38:43 25° NNE 12:41:32 10° ENE daylight
28 Jun - 14:12:11 10° WNW 14:15:29 75° SW 14:18:45 10° SE daylight
29 Jun - 06:53:20 10° S 06:55:44 19° SE 06:58:10 10° E daylight
29 Jun - 08:28:44 10° WSW 08:31:57 56° NNW 08:35:12 10° NE daylight
29 Jun - 10:06:26 10° WNW 10:08:57 20° N 10:11:29 10° NE daylight
29 Jun - 11:43:41 10° NW 11:46:16 21° N 11:48:50 10° ENE daylight
29 Jun - 13:19:57 10° NW 13:23:13 62° NNE 13:26:29 10° ESE daylight
29 Jun - 14:57:07 10° W 14:59:24 18° SW 15:01:41 10° S daylight
30 Jun - 06:03:11 10° SE 06:03:43 10° SE 06:04:16 10° ESE daylight
30 Jun - 07:36:25 10° SW 07:39:40 83° SSE 07:42:58 10° ENE daylight
30 Jun - 09:13:43 10° WNW 09:16:28 24° NNW 09:19:14 10° NE daylight
30 Jun - 10:51:21 10° NW 10:53:44 18° N 10:56:09 10° NE daylight
30 Jun - 12:27:45 10° NW 12:30:52 38° NNE 12:33:59 10° E daylight
30 Jun - 14:04:20 10° WNW 14:07:18 32° SW 14:10:17 10° SSE daylight
01 Jul - 06:44:20 10° SSW 06:47:28 44° SE 06:50:36 10° ENE daylight
01 Jul - 08:21:02 10° W 08:24:01 32° NNW 08:27:01 10° NE daylight
01 Jul - 09:58:51 10° NW 10:01:13 18° N 10:03:34 10° NE daylight
01 Jul - 11:35:34 10° NW 11:38:27 27° NNE 11:41:20 10° E daylight
01 Jul - 13:11:53 10° WNW 13:15:08 60° SW 13:18:23 10° SE daylight
02 Jul - 05:52:38 10° S 05:55:19 24° SE 05:58:00 10° E daylight
02 Jul - 07:28:26 10° WSW 07:31:37 47° NNW 07:34:48 10° NE daylight
02 Jul - 09:06:12 10° NW 09:08:40 19° N 09:11:08 10° NE daylight
02 Jul - 10:43:20 10° NW 10:45:58 22° NNE 10:48:37 10° ENE daylight
02 Jul - 12:19:34 10° NW 12:22:51 75° NNE 12:26:08 10° ESE daylight
02 Jul - 13:57:06 10° W 13:58:57 14° SW 14:00:48 10° SSW daylight
03 Jul - 05:01:39 10° SSE 05:03:13 13° SE 05:04:48 10° ESE daylight
03 Jul - 06:36:01 10° WSW 06:39:16 81° NNW 06:42:33 10° NE daylight
03 Jul - 08:13:29 10° WNW 08:16:08 22° NNW 08:18:48 10° NE daylight
03 Jul - 09:50:59 10° NW 09:53:26 19° N 09:55:52 10° NE daylight
03 Jul - 11:27:19 10° NW 11:30:30 44° NNE 11:33:40 10° E daylight
03 Jul - 13:04:03 10° WNW 13:06:51 26° SW 13:09:38 10° SSE daylight
